GW1348 Weather Reports


Display with metric or nautical units.
time (UTC)temp
F
wind
direction
speed
MPH
gust
MPH
rain 1hr
in
rain 24hr
in
rain mn
in
humidity
%
barometer
mb
20260505230530 30 162 0.0 3.0 0.00 0.13 0.00 85 1009.3
20260505230044 30 172 0.0 3.0 0.00 0.13 0.00 85 1009.3
20260505225531 30 114 0.0 3.0 0.00 0.13 0.00 85 1009.4
20260505225030 31 0 1.0 3.0 0.00 0.13 0.00 85 1009.4
20260505224543 31 0 0.0 4.0 0.00 0.13 0.00 85 1009.3
20260505224031 31 134 0.0 4.0 0.00 0.13 0.00 85 1009.4
20260505223531 31 240 1.0 4.0 0.00 0.13 0.00 85 1009.4
20260505223041 31 242 0.0 4.0 0.00 0.13 0.00 84 1009.4
20260505222530 31 0 1.0 4.0 0.00 0.13 0.00 85 1009.4
20260505222031 31 139 1.0 5.0 0.00 0.13 0.00 85 1009.5
20260505221548 31 0 0.0 5.0 0.00 0.13 0.00 85 1009.5
20260505221030 31 0 1.0 4.0 0.00 0.13 0.00 85 1009.4
20260505220531 31 167 0.0 4.0 0.00 0.13 0.00 85 1009.5
20260505220051 31 0 1.0 4.0 0.00 0.13 0.00 85 1009.5
20260505215531 31 146 0.0 3.0 0.00 0.13 0.13 85 1009.4
20260505215031 31 145 0.0 3.0 0.00 0.13 0.13 85 1009.5
20260505214554 31 146 0.0 3.0 0.00 0.13 0.13 86 1009.5
20260505214030 31 147 0.0 3.0 0.00 0.13 0.13 86 1009.5
20260505213530 31 0 0.0 6.0 0.00 0.13 0.13 86 1009.4
20260505213049 31 0 1.0 6.0 0.00 0.13 0.13 86 1009.2
20260505212531 31 0 0.0 2.0 0.00 0.13 0.13 86 1009.2
20260505212033 31 128 0.0 2.0 0.00 0.13 0.13 86 1009.2
20260505211545 31 0 0.0 3.0 0.00 0.13 0.13 85 1009.2
20260505211030 31 0 0.0 3.0 0.00 0.13 0.13 85 1009.2
20260505210532 32 0 0.0 3.0 0.00 0.13 0.13 85 1009.3
20260505210046 32 0 0.0 4.0 0.00 0.13 0.13 84 1009.3
20260505205531 32 0 0.0 4.0 0.00 0.13 0.13 84 1009.1
20260505205029 32 246 0.0 3.0 0.00 0.13 0.13 84 1009.1
20260505204544 32 0 0.0 3.0 0.00 0.13 0.13 84 1009.1
20260505204032 32 0 0.0 1.0 0.00 0.13 0.13 84 1009.1
20260505203532 32 0 0.0 1.0 0.00 0.13 0.13 84 1009.1
20260505203101 32 134 0.0 2.0 0.00 0.13 0.13 83 1009.1
20260505202532 32 0 0.0 2.0 0.00 0.13 0.13 83 1009.1
20260505202030 32 0 0.0 2.0 0.00 0.13 0.13 83 1009.0
20260505201547 32 0 0.0 1.0 0.00 0.13 0.13 83 1009.1
20260505201034 33 0 0.0 2.0 0.00 0.13 0.13 83 1009.1
20260505200532 33 0 0.0 2.0 0.00 0.13 0.13 83 1009.0
20260505200049 33 0 0.0 2.0 0.00 0.13 0.13 83 1009.0
20260505195530 33 0 0.0 3.0 0.00 0.13 0.13 82 1009.1
20260505195030 33 0 0.0 3.0 0.00 0.13 0.13 82 1009.0
20260505194543 33 144 0.0 2.0 0.00 0.13 0.13 82 1009.1
20260505194031 33 0 0.0 2.0 0.00 0.13 0.13 83 1009.0
20260505193530 33 300 0.0 2.0 0.00 0.13 0.13 84 1008.9
20260505193038 34 0 0.0 3.0 0.00 0.13 0.13 84 1008.9
20260505192530 34 0 0.0 6.0 0.00 0.13 0.13 83 1008.8
20260505192030 34 134 1.0 6.0 0.00 0.13 0.13 83 1008.8
20260505191541 34 344 1.0 5.0 0.00 0.13 0.13 82 1008.9
20260505191030 34 104 1.0 5.0 0.00 0.13 0.13 82 1008.8
20260505190530 34 160 0.0 5.0 0.00 0.13 0.13 82 1008.8
20260505190046 34 101 2.0 5.0 0.00 0.13 0.13 83 1008.7
20260505185530 34 122 1.0 4.0 0.00 0.13 0.13 83 1008.6
20260505185031 34 0 0.0 4.0 0.00 0.13 0.13 84 1008.7
20260505184543 35 36 1.0 7.0 0.00 0.13 0.13 84 1008.7
20260505184034 35 62 1.0 7.0 0.00 0.13 0.13 84 1008.8
20260505183530 35 94 2.0 5.0 0.00 0.13 0.13 84 1008.8
20260505183043 35 32 0.0 3.0 0.00 0.13 0.13 85 1008.8
20260505182529 35 150 0.0 3.0 0.00 0.13 0.13 84 1008.8
20260505182030 35 0 0.0 6.0 0.00 0.13 0.13 84 1008.9
20260505181544 35 59 1.0 6.0 0.00 0.13 0.13 83 1008.9
20260505181031 35 0 0.0 4.0 0.00 0.13 0.13 82 1008.8
20260505180532 35 0 0.0 6.0 0.00 0.13 0.13 81 1008.7
20260505180040 35 0 0.0 6.0 0.00 0.13 0.13 80 1008.6
20260505175531 35 0 0.0 3.0 0.00 0.13 0.13 80 1008.6
20260505175030 35 0 0.0 2.0 0.00 0.13 0.13 79 1008.7
20260505174545 35 0 0.0 2.0 0.00 0.13 0.13 79 1008.6
20260505174031 35 0 0.0 4.0 0.00 0.13 0.13 78 1008.7
20260505173531 35 0 1.0 4.0 0.00 0.13 0.13 78 1008.7
20260505173043 36 141 1.0 5.0 0.00 0.13 0.13 77 1008.6
20260505172530 36 0 2.0 6.0 0.00 0.13 0.13 77 1008.5
20260505172031 36 0 0.0 6.0 0.00 0.13 0.13 77 1008.5
20260505171544 36 0 1.0 4.0 0.00 0.13 0.13 77 1008.4
20260505171031 36 110 1.0 7.0 0.01 0.13 0.13 77 1008.3
20260505170530 36 0 1.0 7.0 0.01 0.13 0.13 78 1008.4
20260505165530 36 224 0.0 3.0 0.01 0.13 0.13 80 1008.2
20260505165030 36 356 0.0 5.0 0.01 0.13 0.13 78 1008.2
20260505164544 36 0 0.0 7.0 0.01 0.13 0.13 78 1008.4
20260505164030 36 131 1.0 7.0 0.01 0.13 0.13 78 1008.2
20260505163531 36 143 2.0 6.0 0.01 0.13 0.13 78 1008.2
20260505163043 36 0 1.0 6.0 0.01 0.13 0.13 78 1008.3
20260505162533 36 0 1.0 6.0 0.01 0.13 0.13 78 1008.3
20260505162030 36 342 1.0 8.0 0.01 0.13 0.13 79 1008.2
20260505161540 37 41 2.0 8.0 0.01 0.13 0.13 80 1008.3
20260505161030 36 257 1.0 5.0 0.00 0.12 0.12 81 1008.3
20260505160529 36 319 0.0 5.0 0.00 0.12 0.12 81 1008.2
20260505153047 34 103 4.0 10.0 0.00 0.12 0.12 84 1008.4
20260505152532 35 127 4.0 10.0 0.00 0.12 0.12 83 1008.2
20260505152030 36 6 2.0 9.0 0.00 0.12 0.12 81 1008.1
20260505151557 37 13 3.0 9.0 0.00 0.12 0.12 78 1008.3
20260505151031 38 345 0.0 4.0 0.01 0.12 0.12 78 1008.3
20260505150531 38 152 0.0 4.0 0.01 0.12 0.12 79 1008.3
20260505140531 37 3 2.0 8.0 0.00 0.11 0.11 76 1007.9
20260505125030 38 150 1.0 6.0 0.00 0.11 0.11 69 1007.8
20260505124556 39 0 2.0 6.0 0.01 0.11 0.11 71 1007.8
20260505124030 38 0 1.0 3.0 0.01 0.11 0.11 72 1007.7
20260505123528 38 106 1.0 5.0 0.01 0.11 0.11 71 1007.6
20260505123055 38 86 0.0 5.0 0.01 0.11 0.11 70 1007.8
20260505122531 38 94 1.0 5.0 0.01 0.11 0.11 70 1007.7
20260505122031 38 25 1.0 9.0 0.01 0.11 0.11 68 1007.7
20260505121553 38 255 0.0 9.0 0.01 0.11 0.11 69 1007.6
20260505121031 38 163 2.0 9.0 0.01 0.11 0.11 66 1007.7
20260505120530 39 177 2.0 5.0 0.01 0.11 0.11 66 1007.6
20260505120053 39 128 2.0 7.0 0.01 0.11 0.11 68 1007.6
20260505115533 38 156 2.0 7.0 0.01 0.11 0.11 71 1007.5
20260505115031 38 133 1.0 9.0 0.01 0.11 0.11 73 1007.5
20260505114545 39 116 2.0 9.0 0.00 0.10 0.10 72 1007.6
20260505114029 39 112 3.0 10.0 0.00 0.10 0.10 71 1007.6
20260505113530 39 174 3.0 11.0 0.00 0.10 0.10 74 1007.5
20260505113043 39 71 2.0 11.0 0.00 0.10 0.10 76 1007.5
20260505112531 37 61 4.0 11.0 0.00 0.10 0.10 79 1007.4
20260505112031 36 336 2.0 8.0 0.00 0.10 0.10 81 1007.5
20260505111545 35 177 1.0 8.0 0.00 0.10 0.10 78 1007.6
20260505111035 37 142 3.0 8.0 0.00 0.10 0.10 77 1007.7
20260505110531 38 239 1.0 8.0 0.00 0.10 0.10 75 1007.6
20260505102030 40 148 2.0 12.0 0.00 0.11 0.10 65 1007.0
20260505101553 40 314 3.0 12.0 0.00 0.11 0.10 66 1007.1
20260505101031 40 219 2.0 10.0 0.00 0.11 0.10 68 1007.1
20260505100536 39 191 3.0 10.0 0.00 0.11 0.10 68 1007.1
20260505100053 38 151 3.0 10.0 0.01 0.11 0.10 67 1007.1
20260505095530 39 107 2.0 8.0 0.01 0.11 0.10 65 1007.0
20260505095030 39 141 2.0 8.0 0.01 0.11 0.10 66 1007.0
20260505094549 40 74 2.0 8.0 0.01 0.11 0.10 65 1006.9
20260505094030 40 239 3.0 8.0 0.01 0.11 0.10 66 1006.8
20260505093530 39 90 3.0 11.0 0.01 0.11 0.10 70 1006.9
20260505093048 39 271 4.0 11.0 0.01 0.11 0.10 69 1006.8
20260505092531 39 106 5.0 10.0 0.01 0.11 0.10 69 1006.8
20260505092031 39 141 3.0 9.0 0.01 0.11 0.10 68 1006.7
20260505091544 39 94 2.0 8.0 0.01 0.11 0.10 72 1006.8
20260505091033 39 107 2.0 9.0 0.02 0.11 0.10 72 1006.7
20260505090530 39 14 2.0 9.0 0.02 0.11 0.10 73 1006.7
20260505090056 39 108 3.0 9.0 0.01 0.10 0.09 73 1006.7
20260505085530 38 82 2.0 5.0 0.02 0.10 0.09 74 1006.8
20260505085032 38 122 2.0 6.0 0.02 0.10 0.09 74 1006.6
20260505084549 38 107 2.0 7.0 0.02 0.10 0.09 74 1006.6
20260505084029 38 3 2.0 7.0 0.03 0.10 0.09 74 1006.5
20260505083529 38 250 3.0 8.0 0.03 0.10 0.09 73 1006.5
20260505083049 39 224 3.0 9.0 0.04 0.10 0.09 72 1006.4
20260505082530 38 117 4.0 10.0 0.04 0.10 0.09 73 1006.3
20260505082030 39 5 3.0 10.0 0.05 0.10 0.09 73 1006.2
20260505081548 39 195 5.0 11.0 0.04 0.09 0.08 73 1006.2
20260505081034 39 139 3.0 11.0 0.05 0.09 0.08 74 1006.2
20260505080530 39 93 3.0 7.0 0.05 0.09 0.08 73 1006.2
20260505080053 39 108 2.0 7.0 0.06 0.09 0.08 76 1006.2
20260505075532 39 150 2.0 7.0 0.05 0.09 0.07 76 1006.3
20260505075029 39 104 2.0 6.0 0.06 0.09 0.07 76 1006.2
20260505074548 39 97 2.0 6.0 0.06 0.09 0.07 76 1006.1
20260505074030 39 163 3.0 6.0 0.06 0.08 0.06 77 1006.2
20260505073530 38 150 1.0 6.0 0.06 0.08 0.06 77 1006.1
20260505073044 38 14 2.0 9.0 0.05 0.07 0.05 78 1006.1
20260505072531 37 33 2.0 14.0 0.05 0.07 0.05 77 1006.0
20260505072030 37 120 3.0 14.0 0.04 0.06 0.04 79 1006.0
20260505071546 37 63 2.0 8.0 0.04 0.06 0.04 81 1006.0
20260505071030 37 128 2.0 9.0 0.03 0.05 0.03 80 1006.1
20260505070535 37 169 2.0 9.0 0.03 0.05 0.03 81 1006.0
20260505070046 37 173 4.0 12.0 0.02 0.04 0.02 80 1006.0
20260505065531 37 210 3.0 12.0 0.02 0.04 0.02 81 1005.9
20260505065034 36 151 3.0 10.0 0.01 0.03 0.01 80 1005.8
20260505064541 37 83 3.0 11.0 0.01 0.03 0.01 80 1005.9
20260505064030 37 166 3.0 11.0 0.00 0.02 0.00 80 1005.9
20260505063530 36 130 3.0 12.0 0.00 0.02 0.00 81 1005.9
20260505063040 36 311 4.0 12.0 0.00 0.02 0.00 81 1005.9
20260505062533 36 74 2.0 6.0 0.00 0.02 0.00 81 1005.9
20260505062030 36 127 2.0 6.0 0.00 0.02 0.00 81 1005.8
20260505061548 35 127 2.0 6.0 0.00 0.02 0.00 82 1005.7
20260505061032 35 6 1.0 6.0 0.00 0.02 0.00 84 1005.7
20260505060530 35 159 2.0 6.0 0.00 0.02 0.00 85 1005.5
20260505060045 34 255 2.0 7.0 0.00 0.02 0.00 86 1005.5
20260505055533 33 113 2.0 7.0 0.00 0.06 0.00 87 1005.4
20260505055031 33 96 1.0 4.0 0.00 0.06 0.00 88 1005.3
20260505054545 33 0 0.0 4.0 0.00 0.06 0.00 88 1005.4
20260505054033 33 0 1.0 5.0 0.00 0.06 0.00 88 1005.4
20260505053531 33 146 1.0 8.0 0.00 0.06 0.00 87 1005.3
20260505053046 33 159 3.0 8.0 0.00 0.06 0.00 86 1005.5
20260505052531 34 37 0.0 5.0 0.00 0.06 0.00 86 1005.5
20260505052030 34 0 0.0 5.0 0.00 0.06 0.00 87 1005.4
20260505051540 34 127 1.0 4.0 0.00 0.06 0.00 88 1005.4
20260505051030 33 226 1.0 4.0 0.00 0.06 0.00 90 1005.4
20260505050534 32 203 0.0 2.0 0.00 0.06 0.00 91 1005.4
20260505041541 31 159 2.0 4.0 0.00 0.06 0.00 92 1005.2
20260505041029 31 140 1.0 4.0 0.00 0.06 0.00 92 1005.2
20260505040531 31 116 0.0 4.0 0.00 0.06 0.00 92 1005.1
20260505040049 31 136 1.0 4.0 0.00 0.06 0.00 92 1005.0
20260505035531 31 89 1.0 4.0 0.00 0.06 0.00 92 1005.0
20260505035030 31 154 1.0 3.0 0.00 0.06 0.00 92 1005.0
20260505034544 31 176 1.0 3.0 0.00 0.06 0.00 92 1004.9
20260505034030 31 134 0.0 3.0 0.00 0.06 0.00 92 1004.8
20260505033530 31 141 1.0 4.0 0.00 0.06 0.00 92 1004.8
20260505033104 31 150 2.0 4.0 0.00 0.06 0.00 92 1004.9
20260505032530 30 165 0.0 4.0 0.00 0.06 0.00 92 1004.8
20260505032029 30 114 0.0 4.0 0.00 0.06 0.00 91 1004.8
20260505031543 30 125 0.0 4.0 0.00 0.06 0.00 91 1004.8
20260505031032 30 0 1.0 4.0 0.00 0.06 0.00 91 1004.7
20260505030530 30 0 0.0 2.0 0.00 0.06 0.00 91 1004.7
20260505030043 31 215 1.0 2.0 0.00 0.06 0.00 91 1004.7
20260505025531 31 139 0.0 3.0 0.00 0.06 0.00 91 1004.7
20260505025030 31 0 0.0 3.0 0.00 0.06 0.00 91 1004.8
20260505024547 31 181 0.0 3.0 0.00 0.06 0.00 91 1004.8
20260505024030 31 141 0.0 4.0 0.00 0.06 0.00 91 1004.8
20260505023530 31 144 1.0 6.0 0.00 0.06 0.00 91 1004.9
20260505023058 31 155 1.0 6.0 0.00 0.06 0.00 91 1004.8
20260505022530 31 172 2.0 6.0 0.00 0.06 0.00 91 1004.8
20260505022029 31 153 2.0 6.0 0.00 0.06 0.00 92 1004.9
20260505021542 31 145 2.0 4.0 0.00 0.06 0.00 92 1004.9
20260505021033 31 142 1.0 4.0 0.00 0.06 0.00 92 1004.9
20260505020533 31 0 1.0 5.0 0.00 0.06 0.00 92 1004.8
20260505020050 31 212 1.0 5.0 0.00 0.06 0.00 91 1004.8
20260505015530 31 160 1.0 5.0 0.00 0.06 0.00 91 1004.8
20260505015030 31 0 0.0 3.0 0.00 0.06 0.00 91 1004.8
20260505014542 31 0 0.0 3.0 0.00 0.06 0.00 91 1004.9
20260505014033 31 0 0.0 3.0 0.00 0.06 0.00 91 1004.8
20260505013532 31 0 0.0 3.0 0.00 0.06 0.00 91 1004.8
20260505013047 31 243 1.0 4.0 0.00 0.06 0.00 91 1004.7
20260505012532 31 141 1.0 4.0 0.00 0.06 0.00 91 1004.6
20260505012030 31 142 1.0 3.0 0.00 0.06 0.00 92 1004.7
20260505011555 31 146 0.0 2.0 0.00 0.06 0.00 92 1004.6
20260505011030 31 0 0.0 1.0 0.00 0.06 0.00 92 1004.7
20260505010530 31 0 0.0 1.0 0.00 0.06 0.00 91 1004.6
20260505010045 31 148 0.0 2.0 0.00 0.06 0.00 90 1004.6
20260505005530 32 0 0.0 2.0 0.00 0.06 0.00 90 1004.6
20260505005030 32 145 0.0 3.0 0.00 0.06 0.00 90 1004.6
20260505004549 32 0 0.0 6.0 0.00 0.06 0.00 91 1004.5
20260505004030 32 132 1.0 6.0 0.00 0.06 0.00 91 1004.5
20260505003529 32 1 1.0 6.0 0.00 0.06 0.00 91 1004.5
20260505003042 31 204 1.0 5.0 0.00 0.06 0.00 92 1004.5
20260505002530 31 137 1.0 4.0 0.00 0.06 0.00 92 1004.4
20260505002031 31 0 1.0 3.0 0.00 0.06 0.00 92 1004.4
20260505001547 31 110 0.0 3.0 0.00 0.06 0.00 92 1004.2
20260505001034 31 0 0.0 3.0 0.00 0.06 0.00 92 1004.1
20260505000530 31 105 0.0 3.0 0.00 0.06 0.00 92 1004.2
20260505000049 31 139 1.0 3.0 0.00 0.06 0.00 92 1004.2
20260504235530 32 161 0.0 2.0 0.00 0.06 0.00 92 1004.2
20260504235030 32 163 1.0 2.0 0.00 0.06 0.00 92 1004.3
20260504234609 32 0 0.0 2.0 0.00 0.06 0.00 92 1004.4
20260504234032 32 149 0.0 2.0 0.00 0.06 0.00 92 1004.3
20260504233530 32 126 0.0 2.0 0.00 0.06 0.00 93 1004.4
20260504233043 32 148 0.0 2.0 0.00 0.06 0.00 93 1004.4
20260504232530 32 0 0.0 2.0 0.00 0.06 0.00 93 1004.2
20260504232029 32 153 0.0 2.0 0.00 0.06 0.00 92 1004.4
20260504231550 32 0 0.0 2.0 0.00 0.06 0.00 92 1004.2
20260504231032 32 0 0.0 3.0 0.00 0.06 0.00 92 1004.3